Location: Dead Woman Crossing
(43.5369°N, 106.3228°W)
Time: 02:07:43
(UTC+00:00)

UWE-3 - Pass Details

Date: 04 July 2022
Orbit: 583 x 677 km, 97.7° (Epoch: 16 August)

Event Time Altitude Azimuth Distance (km) Brightness Sun altitude
Rises 09:44:23 0° 24° (NNE) 2,913 ? -14.7°
Reaches altitude 10° 09:46:50 10° 36° (NE) 2,018 ? -14.5°
Maximum altitude 09:50:36 27° 95° (E) 1,226 ? -14.0°
Drops below altitude 10° 09:54:26 10° 154° (SSE) 2,053 ? -13.6°
Enters shadow 09:56:04 - 163° (SSE) 2,646 ? -13.4°
